User: anonymous
Location: Unspecified
(0.0000°N, 0.0000°E)
Time: 13:38:37
(UTC+02:00)
Language:

NOSS 3-3 (A) - Orbit

View from above orbital plane
View from above orbital plane
View from above satellite
View from above satellite

Ground track
Ground track

The orbit data is extracted from the following two-line orbital elements,

1 28537U 05004A   14243.85046096 0.00000000  00000-0  00000-0 0    09
2 28537  63.4307 267.6721 0176000 359.6499   0.3501 13.40650268    04
Epoch (UTC): 31 August 2014 20:24:39
Eccentricity: 0.0176000
inclination: 63.4307°
perigee height: 975 km
apogee height: 1238 km
right ascension of ascending node: 267.6721°
argument of perigee: 359.6499°
revolutions per day: 13.40650268
mean anomaly at epoch: 0.3501°
orbit number at epoch: 0

The dashed part of the orbit path shows where the satellite is in the earth's shadow,  

DLR